Terminal Aerodrome Forecast
Issued by NWS Oklahoma City, OK

Home | Current Version | Previous Version | Text Only | Print | Product List | Glossary On
Versions: 1 2 3 4 5 6 7 8 9 10 11 12 13 14 15 16 17 18 19 20 21 22 23 24 25 26
000
FTUS44 KOUN 202320
TAFOUN
TAF
KOUN 202320Z 2100/2124 15005KT P6SM SCT250
     FM210900 27006KT 3SM BR SCT005 SCT030
     FM211500 01012KT P6SM SCT040=

USA.gov is the U.S. government's official web portal to all federal, state and local government web resources and services.